Regional Weather Roundup
Issued by NWS

Home | Current Version | Previous Version | Text Only | Print | Product List | Glossary On
Versions: 1 2 3 4 5 6 7 8 9 10 11 12 13 14 15 16 17 18 19 20 21 22 23 24 25 26 27 28 29 30 31 32 33 34 35 36 37 38 39 40 41 42 43 44 45 46 47 48 49 50
000
ASUS44 KFWD 040910
RWRTX
NORTH TEXAS HOURLY WEATHER ROUNDUP
NATIONAL WEATHER SERVICE FORT WORTH TX
400 AM CDT TUE AUG 04 2015

NOTE: "FAIR" INDICATES FEW OR NO CLOUDS BELOW 12,000 FEET WITH NO
SIGNIFICANT WEATHER AND/OR OBSTRUCTIONS TO VISIBILITY.

TXZ118-119-041000-
DALLAS/FORT WORTH METROPLEX

CITY           SKY/WX    TMP DP  RH WIND       PRES   REMARKS
DFW AIRPORT    PTCLDY    82  63  52 S9        29.90R
DALLAS LOVE    PTCLDY    84  61  45 S8        29.90S
FTW MEACHAM    PTCLDY    82  62  50 SE6       29.90S
DAL-EXECUTIVE  PTCLDY    81  62  52 S5        29.90S
FTW-ALLIANCE   PTCLDY    78  63  59 S3        29.90S
FTW-NAS-JRB    PTCLDY    82  64  54 S7        29.90S
FTW-SPINKS     PTCLDY    78  63  58 S3        29.92S
ARLINGTON      PTCLDY    81  62  52 S6        29.91R
GRAND PRAIRIE  PTCLDY    82  65  57 S3        29.91S
ADDISON        CLEAR     85  63  46 S5        29.92S
MESQUITE       PTCLDY    76  65  69 S3        29.91S
LANCASTER      PTCLDY    76  63  62 CALM      29.92S
$$

TXZ091>094-102>105-117-120-121-131>134-041000-
NORTH CENTRAL TEXAS

CITY           SKY/WX    TMP DP  RH WIND       PRES   REMARKS
SHRMAN/DENISON PTCLDY    82  66  58 CALM      29.91S
GAINESVILLE    PTCLDY    77  65  68 CALM      29.92F
BOWIE          MOCLDY    78  63  59 SE6       29.91F
DECATUR        PTCLDY    81  59  47 S9        29.92S
DENTON         CLEAR     79  65  62 SE3       29.90F
MCKINNEY       CLEAR     78  66  66 CALM      29.91S
GREENVILLE     CLEAR     73  64  73 CALM      29.91S
ROCKWALL       CLEAR     81  64  56 S7        29.90S
TERRELL        CLEAR     78  65  63 S7        29.91F
WAXAHACHIE     MOCLDY    77  65  65 SE5       29.92F
CLEBURNE         N/A     79  64  61 S6        29.93S
GRANBURY       PTCLDY    81  64  56 CALM      29.92R
$$

TXZ083>090-098>101-113>116-127>130-139>142-154-155-041000-
WESTERN NORTH TEXAS

CITY           SKY/WX    TMP DP  RH WIND       PRES   REMARKS
WICHITA FALLS  MOCLDY    78  65  63 S9        29.89S
WF-KICKAPOO    CLOUDY    80  65  62 SW6       29.90S
VERNON         CLOUDY    78  65  64 CALM      29.91S
ABILENE        PTCLDY    78  59  51 SW5       29.95F
ABILENE-DYESS  PTCLDY    79  60  52 S8        29.93F
BRECKENRIDGE   MOCLDY    81  59  47 S7        29.91S
GRAHAM         PTCLDY    78  64  62 CALM      29.89S
MINERAL WELLS  PTCLDY    75  65  70 SE7       29.89F
STEPHENVILLE   MOCLDY    75  64  68 CALM      29.96S
COMANCHE       MOCLDY    78  62  59 S7        29.94S
BROWNWOOD      MOCLDY    73  63  68 CALM      29.94S
COLEMAN        PTCLDY    76  61  58 SW5       29.96R
BRADY          CLEAR     77  61  57 SE6       29.95F
$$

TXZ143>147-156>162-174-175-041000-
CENTRAL TEXAS

CITY           SKY/WX    TMP DP  RH WIND       PRES   REMARKS
WACO           PTCLDY    82  69  64 S12       29.91S
HILLSBORO      PTCLDY    80  64  58 S8        29.92S
CORSICANA      CLEAR     78  68  71 S7        29.93S
MEXIA          CLEAR     75  69  82 E6        29.92S
HEARNE         CLEAR     76  71  83 E3        29.93F
CAMERON        CLEAR     79  72  78 S8        29.92S
TEMPLE         PTCLDY    77  66  69 S9        29.93S
KILLEEN        CLEAR     78  68  72 S8        29.94R
KILLEEN-SKYLRK   N/A    N/A N/A N/A MISG        N/A
FORT HOOD      CLEAR     77  69  74 SE6       29.93R
GATESVILLE     PTCLDY    81  66  61 S8        29.95S
HAMILTON       MOCLDY    77  61  57 S6        29.95S
LAMPASAS       CLEAR     76  65  70 CALM      29.94S
$$

TXZ095>097-106>112-122>126-135>138-148>153-164>167-041000-
EAST TEXAS

CITY           SKY/WX    TMP DP  RH WIND       PRES   REMARKS
PARIS          CLOUDY    79  64  61 E5        29.92S
SULPHUR SPRNGS PTCLDY    82  62  51 S6        29.94S
MOUNT PLEASANT PTCLDY    72  68  86 CALM      29.93S
GILMER         PTCLDY    76  65  67 S3        29.93R
MINEOLA        PTCLDY    81  64  57 S3        29.93S
TYLER          CLEAR     76  66  71 S5        29.93S
LONGVIEW       CLEAR     77  67  71 S5        29.92R
MARSHALL       CLEAR     76  70  80 CALM      29.95R
ATHENS         CLEAR     70  64  83 CALM      29.92S
PALESTINE      CLEAR     76  68  78 SE3       29.94S
JACKSONVILLE   CLEAR     78  68  69 SW3       29.96S
HENDERSON      CLEAR     72  68  86 CALM      29.94S
CENTER         FAIR      77  70  81 CALM      29.93R
NACOGDOCHES    CLEAR     72  68  88 CALM      29.94R
LUFKIN         CLEAR     72  69  90 SE3       29.94R
$$

SUPPLEMENTAL OBSERVATIONS (CENTRAL)

CITY           SKY/WX    TMP DP  RH WIND       PRES   REMARKS
CADDO GRASSLND   N/A     81  63  54 S3          N/A
PAT MAYSE LAKE   N/A     81  63  54 SE6         N/A
GREENVILLE       N/A     77  63  61 SE3         N/A
CEDAR HILL       N/A     82  61  47 S7          N/A
MCGREGOR         N/A     79  68  69 S7          N/A
TEMPLE           N/A     79  70  73 S6          N/A
$$

SUPPLEMENTAL OBSERVATIONS (WEST)

CITY           SKY/WX    TMP DP  RH WIND       PRES   REMARKS
MILLERS CREEK    N/A     79  63  57 S8          N/A
POSSUM KINGDOM   N/A     79  59  50 S6          N/A
LBJ GRASSLAND    N/A    N/A N/A N/A SE6         N/A
GRANBURY         N/A    N/A N/A N/A S2          N/A
HAMBY            N/A     79  55  44 SW7         N/A
IVIE RESERVOIR   N/A     75  57  53 SE1         N/A
COLORADO BEND    N/A     77  63  61 SW6         N/A
$$

SUPPLEMENTAL OBSERVATIONS (EAST)

CITY           SKY/WX    TMP DP  RH WIND       PRES   REMARKS
CLARKSVILLE      N/A     77  66  69 E1          N/A
TEXARKANA        N/A     70  66  88 CALM        N/A
LINDEN           N/A     73  68  83 CALM        N/A
GILMER           N/A     73  66  78 CALM        N/A
HENDERSON        N/A     72  64  78 SE1         N/A
LUFKIN           N/A     72  68  88 MISG        N/A
N SABINE NF      N/A     73  70  88 MISG        N/A
S SABINE NF      N/A     73  70  88 CALM        N/A
$$

SUPPLEMENTAL OBSERVATIONS ARE A COLLECTION OF AUTOMATED INSTRUMENTS
THAT ARE MAINTAINED BY A VARIETY OF FEDERAL AND STATE AGENCIES.
CERTAIN ELEMENTS...SUCH AS HUMIDITY VALUES AND SUSTAINED WIND
SPEEDS...MAY BE APPROXIMATED.




USA.gov is the U.S. government's official web portal to all federal, state and local government web resources and services.